[[{"header":{"parameterUnit":"m.s-1","parameterCategory":1,"la1":30.2991,"la2":30.254,"lo1":-89.0895,"lo2":-89.0444,"dy":0.0017,"dx":0.0017,"nx":28,"ny":28,"refTime":"2023-06-26T21:00:00:Z","depth":0,"parameterNumber":2,"parameterNumberName":"U-component_of_WINDS"},"data":[0,0,0,0,0,0,0,0,0,0,0,0,0,0,0,0,0,0,0,0,0,0,0,0,0,0,0,0,0,0,0,0,0,0,0,0,0,0,0,0,0,0,0,0,0,0,0,0,0,0,0,0,0,0,0,0,0,0,1.4084,1.4084,0,1.4051,1.405,1.405,1.404,1.404,1.404,1.404,1.4006,1.4005,1.4003,0,0,0,0,0,0,0,0,0,0,0,0,0,1.4143,1.4142,1.4085,1.4084,1.4084,1.4051,1.405,1.405,1.404,1.404,1.404,1.4041,1.4006,1.4005,1.4003,0,0,0,0,0,0,0,0,0,0,0,0,0,1.4114,1.4141,1.4085,1.4075,1.4074,1.4051,1.405,1.405,1.404,1.404,1.404,1.4041,1.4006,1.4005,1.4003,1.3988,0,0,1.3998,1.3997,0,0,0,0,0,0,0,0,1.4116,1.4112,1.4077,1.4075,1.4074,1.405,1.4058,1.4029,1.404,1.4053,1.404,1.4041,1.402,1.4017,1.401,1.3986,1.3984,1.3998,1.3997,1.3996,1.3996,0,0,0,0,0,0,0,1.4118,1.4113,1.4071,1.4076,1.4075,1.4073,1.4069,1.4052,1.4035,1.4052,1.4051,1.4047,1.4019,1.4012,1.4009,1.3984,1.3998,1.3997,1.3996,1.3995,1.3948,1.3948,0,0,0,0,0,0,1.4121,1.4115,1.4072,1.407,1.4096,1.4071,1.4067,1.4057,1.4035,1.4032,1.4047,1.4047,1.4015,1.4011,1.4008,1.399,1.3996,1.3995,1.3994,1.3948,1.3948,1.3948,0,0,0,0,0,0,1.4122,1.4117,1.4074,1.4092,1.4087,1.407,1.4059,1.4056,1.4049,1.4032,1.4029,1.4042,1.4015,1.4011,1.3993,1.3989,1.3994,1.3993,1.3949,1.3948,1.3948,1.3953,0,0,0,0,0,0,1.4124,1.4118,1.4111,1.4092,1.4086,1.4059,1.4059,1.4056,1.4046,1.4046,1.4027,1.4024,1.4015,1.3996,1.3992,1.3987,1.3991,1.3949,1.3949,1.3948,1.3953,1.3953,1.3953,0,0,0,0,0,1.4126,1.4113,1.4111,1.4106,1.4077,1.4058,1.4055,1.4045,1.4046,1.404,1.4029,1.4024,1.399,1.3994,1.399,1.3984,1.3949,1.3949,1.3948,1.3954,1.3953,1.3953,0,0,0,0,0,0,1.4131,1.411,1.4107,1.4088,1.4075,1.4057,1.4048,1.4044,1.403,1.403,1.4018,1.4014,1.3999,1.3989,1.3994,1.3969,1.397,1.3968,1.3976,1.3975,1.3975,1.3977,1.399,0,0,0,0,0,1.413,1.4117,1.4099,1.4084,1.4078,1.4064,1.4056,1.405,1.4036,1.403,1.4018,1.4005,1.3992,1.3983,1.3969,1.3952,1.3949,1.3946,1.3946,1.3946,1.3945,1.3937,1.3937,1.3946,1.3946,1.3946,0,0,1.4128,1.4115,1.4107,1.4085,1.4074,1.4061,1.406,1.4046,1.4036,1.4028,1.4011,1.4003,1.3987,1.3971,1.3963,1.3963,1.3942,1.3945,1.3945,1.3944,1.3937,1.3936,1.3935,1.3946,1.3946,1.3946,0,0,1.4117,1.4105,1.4092,1.4082,1.4066,1.4058,1.4055,1.4038,1.4032,1.4015,1.4009,1.3998,1.3975,1.3965,1.3957,1.3946,1.3941,1.3942,1.394,1.3933,1.3932,1.3932,1.3929,1.3928,1.394,1.394,1.394,0,1.4115,1.4096,1.4086,1.4073,1.4064,1.4057,1.4045,1.4035,1.4016,1.401,1.4011,1.3983,1.3972,1.3954,1.3952,1.3945,1.3942,1.3943,1.3933,1.3932,1.3932,1.3929,1.3928,1.3941,1.3941,1.3941,1.3941,0,1.4096,1.4082,1.4074,1.4057,1.4047,1.4034,1.4024,1.4015,1.401,1.4002,1.3987,1.3974,1.3959,1.3954,1.3949,1.3937,1.3937,1.3935,1.3936,1.3931,1.3928,1.3927,1.3941,1.3941,1.3941,1.3941,0,0,1.4085,1.4065,1.4062,1.4055,1.4039,1.4028,1.4016,1.4002,1.3996,1.3983,1.3974,1.3956,1.3955,1.3946,1.3939,1.3933,1.3927,1.3932,1.3932,1.3933,1.3915,1.3917,1.3915,1.3925,1.3924,1.3924,1.3917,0,1.4073,1.4051,1.4044,1.4026,1.4015,1.4009,1.3999,1.3988,1.3981,1.3971,1.3963,1.3951,1.395,1.3944,1.3938,1.3929,1.3924,1.393,1.3916,1.3916,1.3921,1.3914,1.3915,1.3908,1.3915,1.3915,1.3915,0,1.4056,1.4045,1.4026,1.4013,1.4008,1.3999,1.3987,1.3977,1.3965,1.3961,1.3952,1.3947,1.3935,1.3937,1.3921,1.3926,1.392,1.3915,1.3915,1.3913,1.3915,1.3913,1.3906,1.3905,1.3913,1.3913,1.3913,0,1.4052,1.4032,1.4019,1.4013,1.3997,1.3992,1.3985,1.3974,1.3966,1.3956,1.3951,1.3939,1.3933,1.3924,1.3917,1.3918,1.3903,1.3903,1.3899,1.3899,1.3896,1.3896,1.3888,1.3892,1.3892,1.3892,1.3892,0,1.404,1.4029,1.4017,1.4009,1.3998,1.399,1.3979,1.3971,1.3962,1.3953,1.3948,1.394,1.393,1.3921,1.3914,1.3904,1.3901,1.3897,1.3896,1.3898,1.3898,1.3894,1.3894,1.3891,1.3891,1.3891,1.3891,0,1.4033,1.4025,1.4011,1.3998,1.3994,1.3987,1.3976,1.3969,1.3962,1.3951,1.3948,1.3938,1.3927,1.3919,1.3904,1.39,1.389,1.3887,1.3893,1.3893,1.389,1.3891,1.3879,1.3878,1.3881,1.3881,1.3881,0,1.4026,1.4018,1.4005,1.3999,1.3993,1.3983,1.3976,1.3968,1.3961,1.3949,1.3944,1.3933,1.3924,1.3907,1.3899,1.3888,1.3887,1.3883,1.3885,1.3888,1.3888,1.3888,1.3888,1.3883,1.3883,1.3883,1.3883,0,1.4015,1.4012,1.4002,1.3992,1.3984,1.3975,1.3967,1.3962,1.3953,1.3946,1.3935,1.3929,1.3915,1.3905,1.3894,1.3888,1.3884,1.3883,1.3882,1.3884,1.3888,1.3887,1.3894,1.3883,1.3883,1.3883,1.3883,1.3883,1.4008,1.4002,1.3992,1.3982,1.3975,1.3968,1.3961,1.3954,1.3945,1.3934,1.393,1.392,1.3911,1.3896,1.389,1.3882,1.3882,1.388,1.3879,1.3879,1.388,1.3889,1.388,1.388,1.388,1.388,1.388,0,1.3998,1.3992,1.3983,1.3972,1.3965,1.3963,1.3954,1.3948,1.3939,1.3931,1.3922,1.3911,1.3902,1.3894,1.3884,1.388,1.3878,1.3877,1.3878,1.3877,1.388,1.3883,1.3879,1.3879,1.3879,1.3879,1.3879,1.3879,1.3992,1.3981,1.3977,1.3964,1.3958,1.3948,1.3943,1.3937,1.393,1.3919,1.3911,1.3906,1.3898,1.3888,1.388,1.3878,1.3875,1.3875,1.3873,1.3876,1.3876,1.3876,1.3879,1.3874,1.3874,1.387,1.387,1.387]},{"header":{"parameterUnit":"m.s-1","parameterCategory":1,"la1":30.2991,"la2":30.254,"lo1":-89.0895,"lo2":-89.0444,"dy":0.0017,"dx":0.0017,"nx":28,"ny":28,"refTime":"2023-06-26T21:00:00:Z","depth":0,"parameterNumber":3,"parameterNumberName":"V-component_of_WINDS"},"data":[0,0,0,0,0,0,0,0,0,0,0,0,0,0,0,0,0,0,0,0,0,0,0,0,0,0,0,0,0,0,0,0,0,0,0,0,0,0,0,0,0,0,0,0,0,0,0,0,0,0,0,0,0,0,0,0,0,0,1.1602,1.1602,0,1.1596,1.1596,1.1596,1.1572,1.1572,1.1571,1.1571,1.1564,1.1564,1.1564,0,0,0,0,0,0,0,0,0,0,0,0,0,1.1591,1.1591,1.1602,1.1602,1.1602,1.1596,1.1596,1.1596,1.1572,1.1572,1.1571,1.157,1.1564,1.1564,1.1564,0,0,0,0,0,0,0,0,0,0,0,0,0,1.1591,1.1591,1.1602,1.159,1.1588,1.1596,1.1596,1.1596,1.1572,1.1572,1.1571,1.157,1.1563,1.1564,1.1564,1.1584,0,0,1.1566,1.1566,0,0,0,0,0,0,0,0,1.1591,1.1592,1.1592,1.1591,1.1589,1.1584,1.159,1.1592,1.1573,1.1579,1.1571,1.157,1.1571,1.1571,1.1572,1.1584,1.1583,1.1566,1.1566,1.1566,1.1567,0,0,0,0,0,0,0,1.1591,1.1592,1.16,1.1592,1.159,1.1583,1.1583,1.159,1.158,1.1578,1.1576,1.1576,1.157,1.1571,1.1571,1.1583,1.1566,1.1566,1.1567,1.1567,1.1607,1.1608,0,0,0,0,0,0,1.1593,1.1592,1.16,1.16,1.1588,1.1584,1.1583,1.1587,1.1579,1.1577,1.1577,1.1575,1.1571,1.1571,1.1571,1.1591,1.1566,1.1567,1.1567,1.1606,1.1607,1.1608,0,0,0,0,0,0,1.1593,1.1594,1.16,1.1595,1.1596,1.1585,1.1589,1.1587,1.1588,1.1578,1.1576,1.158,1.157,1.157,1.158,1.159,1.1567,1.1568,1.1605,1.1607,1.1608,1.1632,0,0,0,0,0,0,1.1593,1.1594,1.1603,1.1596,1.1596,1.1611,1.159,1.1587,1.1589,1.1586,1.1581,1.1579,1.1569,1.1579,1.1581,1.1591,1.1568,1.1604,1.1606,1.1607,1.163,1.1634,1.1637,0,0,0,0,0,1.1593,1.161,1.1603,1.1604,1.1606,1.1611,1.1611,1.1601,1.159,1.1597,1.159,1.1579,1.1589,1.1581,1.1582,1.1592,1.1604,1.1605,1.1607,1.1629,1.1633,1.1637,0,0,0,0,0,0,1.1619,1.1609,1.1601,1.1617,1.1615,1.1607,1.1617,1.1606,1.1607,1.1605,1.1591,1.159,1.1601,1.1598,1.1588,1.1609,1.1594,1.1596,1.161,1.1615,1.1618,1.1618,1.1568,0,0,0,0,0,1.1627,1.1632,1.1623,1.1639,1.1638,1.1627,1.1629,1.1621,1.1618,1.1617,1.1611,1.1609,1.1611,1.1613,1.1615,1.163,1.1627,1.1637,1.1641,1.1643,1.1645,1.165,1.1653,1.1614,1.1614,1.1614,0,0,1.1643,1.1638,1.1643,1.1644,1.1641,1.1646,1.1627,1.1634,1.1636,1.1618,1.1626,1.1622,1.1618,1.163,1.1635,1.1627,1.1655,1.1646,1.1648,1.1648,1.1652,1.1656,1.1659,1.1615,1.1615,1.1615,0,0,1.1674,1.1672,1.1683,1.168,1.1676,1.1669,1.1671,1.1664,1.166,1.1668,1.1654,1.1657,1.1662,1.1658,1.1657,1.1684,1.1673,1.1685,1.1702,1.1707,1.171,1.1713,1.172,1.1723,1.1687,1.1687,1.1687,0,1.1694,1.1702,1.169,1.1697,1.1696,1.1679,1.1689,1.1687,1.1684,1.1683,1.1675,1.1679,1.1675,1.1684,1.169,1.1691,1.1692,1.1686,1.1711,1.1714,1.1716,1.1723,1.1726,1.1688,1.1688,1.1688,1.1688,0,1.1726,1.1731,1.174,1.1736,1.1737,1.1746,1.1733,1.1736,1.1726,1.1719,1.1726,1.1721,1.172,1.1721,1.1713,1.1729,1.1724,1.1714,1.1699,1.1721,1.1727,1.173,1.169,1.169,1.1689,1.1689,0,0,1.1774,1.1762,1.1766,1.1762,1.1755,1.1759,1.1765,1.1764,1.1765,1.1763,1.1766,1.1769,1.1759,1.1758,1.1749,1.1753,1.1771,1.1742,1.1741,1.1746,1.1785,1.1792,1.1795,1.1764,1.1765,1.1765,1.1785,0,1.1802,1.1813,1.1801,1.1814,1.1817,1.1799,1.1805,1.18,1.1793,1.1794,1.1786,1.1787,1.1775,1.1773,1.1777,1.1769,1.1779,1.1767,1.1766,1.1766,1.1766,1.1799,1.1807,1.1826,1.1787,1.1788,1.1788,0,1.1837,1.1835,1.1847,1.1837,1.1838,1.1843,1.1839,1.1841,1.1834,1.1829,1.1826,1.1814,1.1818,1.1804,1.1808,1.18,1.1799,1.1794,1.1795,1.1793,1.1778,1.1797,1.1832,1.1835,1.1792,1.1792,1.1792,0,1.1868,1.1869,1.1875,1.1874,1.1862,1.1866,1.1861,1.1854,1.1853,1.185,1.1848,1.1846,1.1844,1.1841,1.1828,1.182,1.1833,1.1818,1.1827,1.1827,1.183,1.183,1.1864,1.1831,1.1831,1.1831,1.1831,0,1.1899,1.1907,1.1889,1.1893,1.1901,1.1886,1.1894,1.1887,1.1881,1.1882,1.1867,1.1869,1.1853,1.1852,1.1842,1.1845,1.1845,1.1839,1.1836,1.184,1.184,1.1838,1.1836,1.1832,1.1832,1.1832,1.1832,0,1.1935,1.1924,1.1929,1.1918,1.1915,1.1921,1.191,1.1912,1.1904,1.1906,1.1905,1.1891,1.1889,1.1877,1.1872,1.1865,1.1871,1.1866,1.1873,1.1871,1.1879,1.1878,1.1913,1.1915,1.1882,1.1883,1.1883,0,1.1955,1.196,1.1949,1.1948,1.1944,1.1945,1.1943,1.1929,1.1927,1.1919,1.1922,1.1919,1.1915,1.1913,1.1902,1.1897,1.1891,1.1903,1.189,1.1893,1.1889,1.1888,1.1888,1.1906,1.1906,1.1907,1.1907,0,1.1991,1.1984,1.1983,1.1979,1.1977,1.1973,1.1969,1.1969,1.1953,1.1952,1.195,1.1947,1.1941,1.1937,1.1931,1.1925,1.1912,1.1911,1.1912,1.1915,1.1918,1.1915,1.1879,1.191,1.191,1.191,1.1909,1.1909,1.2018,1.2021,1.2013,1.2011,1.2005,1.2001,1.2002,1.1992,1.199,1.1985,1.1976,1.1974,1.1965,1.1955,1.1949,1.1947,1.194,1.1943,1.1943,1.1943,1.1944,1.192,1.1946,1.1946,1.1945,1.1945,1.1945,0,1.2052,1.2045,1.2043,1.2036,1.2034,1.2023,1.2016,1.2015,1.2014,1.2007,1.2003,1.1999,1.1995,1.1982,1.1976,1.1977,1.1971,1.1975,1.1974,1.1973,1.1952,1.195,1.198,1.198,1.198,1.198,1.198,1.198,1.2069,1.2072,1.2064,1.2064,1.2057,1.2055,1.2052,1.2047,1.2041,1.2037,1.2033,1.2025,1.2015,1.2008,1.2003,1.1999,1.1997,1.2003,1.1998,1.1978,1.1975,1.1971,1.197,1.2003,1.2003,1.2019,1.2019,1.2019]}]]